Nakashibetsu current weather conditions

sailwx.info

Wind from 330 at 6 knots

Air temperature -8.0° C
Visibility: greater than 2.4 NM
Dewpoint -12.0° C
Present weather: Light snow showers.

Last reported at 2020-Jan-25 09:00 UTC.
Time now 2020-Jan-25 13:36 UTC

Location: N 43°35' E 144°58'.
View on Google Maps.

See reports from other nearby stations

  
Tides and Currents Weather Stations Pressure Air Temp Water Temp Dewpoint Dewpoint Depression Visibility Wind Speed Wind Dir Waves Ship Positions
date/time (UTC)wind fromknots sea level pressurealtimeterstation pressurevisibilityair tempwater tempwave heightnotes
2020-Jan-25 09:00 330 6 2.4-8.0 Light snow showers.
2020-Jan-25 08:37 320 6 2.6-8.0 Light snow showers.
2020-Jan-25 08:00 300 5 5.4-9.0 Showers in the vicinity.
2020-Jan-25 07:00 290 6 5.4-8.0 Showers in the vicinity.
2020-Jan-25 06:00 290 8 5.4-7.0 Showers in the vicinity.
2020-Jan-25 05:00 290 11 5.4-7.0 Showers in the vicinity.
2020-Jan-25 04:00 300 15 5.4-7.0 Showers in the vicinity.
2020-Jan-25 03:00 310 12 5.4-6.0 Showers in the vicinity.
2020-Jan-25 02:00 300 11 gusting 24 5.4-6.0
2020-Jan-25 01:00 290 13 gusting 27 5.4-7.0
2020-Jan-25 00:00 310 11 gusting 24 5.4-8.0
2020-Jan-24 23:30 290 13 gusting 27 5.4-7.0 Showers in the vicinity.
2020-Jan-24 09:00 310 8 5.4-6.0 Light snow showers.
2020-Jan-24 08:00 330 8 3.8-5.0 Light snow showers.
2020-Jan-24 07:00 320 9 5.4-3.0 Light snow showers.
2020-Jan-24 06:00 340 9 5.4-1.0
2020-Jan-24 05:12 310 5 2.7-1.0 Light snow showers.
2020-Jan-24 05:04 330 4 1.7-1.0 Light snow showers.
2020-Jan-24 05:00 340 5 0.9-1.0 Light snow showers.
2020-Jan-24 04:32 1.7-2.0 Light snow showers.
2020-Jan-24 04:29 1.3-2.0 Light snow showers.
2020-Jan-24 04:25 0.9-2.0 Light snow showers.
2020-Jan-24 04:21 330 2 0.8-2.0 Light snow showers.
2020-Jan-24 04:18 320 4 0.5-2.0 Light snow showers.
2020-Jan-24 04:17 320 4 0.5-2.0 Snow showers.
2020-Jan-24 04:15 320 5 0.5-2.0 Snow showers.
2020-Jan-24 04:14 320 5 0.2-2.0 Snow showers.
2020-Jan-24 04:11 320 6 0.2-2.0 Snow showers.
2020-Jan-24 04:05 320 6 0.3-2.0 Snow showers.
2020-Jan-24 04:02 320 7 0.8-1.0 Light snow showers.
2020-Jan-24 04:00 320 7 1.7-1.0 Light snow showers.
2020-Jan-24 03:00 300 4 5.4-1.0
2020-Jan-24 02:00 260 6 3.2-2.0 Light snow showers.
2020-Jan-24 01:00 250 8 4.3-2.0
2020-Jan-24 00:00 260 6 5.4-3.0
2020-Jan-23 23:30 270 4 5.4-3.0